Cavalier, ND

1:03 PM CDT on September 26, 2016 (GMT -0500)
Cavalier

Weather History for K2C8 - October, 2011

Change the Weather History Date:

Friday, October 7, 2011

  Actual Average (KGAF) Record (KGAF)
Temperature  
Mean Temperature 70 °F -  
Max Temperature 75 °F 58 °F 83 °F (1980)
Min Temperature 66 °F 36 °F 16 °F (1952)
Cooling Degree Days 6    
Growing Degree Days 20 (Base 50)    
Moisture  
Dew Point 44 °F    
Average Humidity 41    
Maximum Humidity 64    
Minimum Humidity 18    
Precipitation  
Precipitation 0.00 in - - ()
Sea Level Pressure  
Sea Level Pressure 29.50 in    
Wind  
Wind Speed 22 mph (South)    
Max Wind Speed 37 mph    
Max Gust Speed 50 mph    
Visibility 10 miles    
Events Rain    
Averages and records for this station are not official NWS values.
T = Trace of Precipitation, MM = Missing Value Source: NWS Daily Summary

Daily Weather History Graph

Daily Weather History Graph

Search for Another Location

Airport or City:

Trip Planner

Search our weather history database for the weather conditions in past years. The results will help you decide how hot, cold, wet, or windy it might be!

Date:

Astronomy

Oct. 07, 2011 Rise Set
Actual Time 7:38 AM CDT 6:57 PM CDT
Civil Twilight 7:07 AM CDT 7:28 PM CDT
Nautical Twilight 6:30 AM CDT 8:05 PM CDT
Astronomical Twilight 5:53 AM CDT 8:42 PM CDT
Moon 4:56 PM CDT (10/7) 3:09 AM CDT (10/7)
Length of Visible Light 12h 21m
Length of Day
11h 18m
Waxing Gibbous, 83% of the Moon is Illuminated
Oct 7
Waxing Gibbous
Oct 11
Full
Oct 19
Last Quarter
Oct 26
New
Nov 2
First Quarter

Hourly Weather History & Observations

Time (CDT) Temp. Dew Point Humidity Pressure Visibility Wind Dir Wind Speed Gust Speed Precip Events Conditions
12:15 AM 71.6 °F 41.0 °F 33% 29.69 in 10.0 mi SSE 16.1 mph 24.2 mph N/A   Clear
12:35 AM 71.6 °F 41.0 °F 33% 29.69 in 10.0 mi SSE 15.0 mph 20.7 mph N/A   Clear
12:55 AM 71.6 °F 41.0 °F 33% 29.68 in 10.0 mi SSE 11.5 mph 21.9 mph N/A   Clear
1:15 AM 71.6 °F 41.0 °F 33% 29.67 in 10.0 mi SSE 17.3 mph 29.9 mph N/A   Partly Cloudy
1:35 AM 71.6 °F 41.0 °F 33% 29.67 in 10.0 mi SSE 17.3 mph 26.5 mph N/A   Scattered Clouds
1:55 AM 71.6 °F 42.8 °F 35% 29.66 in 10.0 mi SSE 15.0 mph 24.2 mph N/A   Partly Cloudy
2:35 AM 71.6 °F 44.6 °F 38% 29.64 in 10.0 mi South 23.0 mph 33.4 mph N/A   Clear
2:55 AM 71.6 °F 44.6 °F 38% 29.63 in 10.0 mi SSE 20.7 mph 28.8 mph N/A   Clear
3:15 AM 71.6 °F 42.8 °F 35% 29.61 in 10.0 mi SSE 20.7 mph 29.9 mph N/A   Clear
3:35 AM 71.6 °F 42.8 °F 35% 29.60 in 10.0 mi SSE 17.3 mph 27.6 mph N/A   Clear
3:55 AM 69.8 °F 42.8 °F 38% 29.59 in 10.0 mi South 20.7 mph 28.8 mph N/A   Clear
4:15 AM 71.6 °F 42.8 °F 35% 29.58 in 10.0 mi SSE 19.6 mph 31.1 mph N/A   Clear
4:55 AM 71.6 °F 44.6 °F 38% 29.57 in 10.0 mi SSE 23.0 mph 33.4 mph N/A   Clear
5:15 AM 68.0 °F 46.4 °F 46% 29.57 in 10.0 mi South 20.7 mph 34.5 mph N/A   Partly Cloudy
5:35 AM 68.0 °F 46.4 °F 46% 29.57 in 10.0 mi South 20.7 mph 27.6 mph N/A   Clear
5:55 AM 68.0 °F 46.4 °F 46% 29.56 in 10.0 mi South 23.0 mph 33.4 mph N/A   Partly Cloudy
6:15 AM 68.0 °F 46.4 °F 46% 29.56 in 10.0 mi South 18.4 mph 28.8 mph N/A   Clear
6:35 AM 68.0 °F 46.4 °F 46% 29.55 in 10.0 mi SSE 19.6 mph 34.5 mph N/A   Clear
6:55 AM 68.0 °F 46.4 °F 46% 29.54 in 10.0 mi SSE 16.1 mph 28.8 mph N/A   Clear
7:35 AM 66.2 °F 50.0 °F 56% 29.53 in 10.0 mi SSE 19.6 mph 28.8 mph N/A   Clear
7:55 AM 66.2 °F 51.8 °F 60% 29.53 in 10.0 mi SSE 23.0 mph 32.2 mph N/A   Clear
8:15 AM 66.2 °F 50.0 °F 56% 29.53 in 8.0 mi SSE 19.6 mph 35.7 mph N/A   Clear
8:35 AM 66.2 °F 51.8 °F 60% 29.53 in 10.0 mi SSE 18.4 mph 28.8 mph N/A   Clear
8:55 AM 66.2 °F 51.8 °F 60% 29.53 in 10.0 mi South 20.7 mph 31.1 mph N/A   Clear
9:15 AM 66.2 °F 53.6 °F 64% 29.53 in 10.0 mi South 21.9 mph 29.9 mph N/A   Clear
9:35 AM 68.0 °F 53.6 °F 60% 29.52 in 10.0 mi South 21.9 mph 29.9 mph N/A   Clear
9:55 AM 69.8 °F 51.8 °F 53% 29.53 in 10.0 mi South 23.0 mph 39.1 mph N/A Rain Light Rain
10:15 AM 69.8 °F 50.0 °F 49% 29.52 in 10.0 mi South 23.0 mph 33.4 mph N/A   Clear
10:35 AM 71.6 °F 50.0 °F 46% 29.51 in 10.0 mi South 27.6 mph 41.4 mph N/A Rain Light Rain
10:55 AM 71.6 °F 50.0 °F 46% 29.51 in 10.0 mi South 28.8 mph 43.7 mph N/A Rain Light Rain
11:15 AM 71.6 °F 50.0 °F 46% 29.50 in 10.0 mi South 27.6 mph 36.8 mph N/A   Mostly Cloudy
11:35 AM 71.6 °F 50.0 °F 46% 29.50 in 10.0 mi South 29.9 mph 40.3 mph N/A Rain Light Rain
11:55 AM 69.8 °F 51.8 °F 53% 29.50 in 10.0 mi South 29.9 mph 40.3 mph N/A Rain Light Rain
12:35 PM 71.6 °F 53.6 °F 53% 29.48 in 10.0 mi South 28.8 mph 36.8 mph N/A Rain Light Rain
12:55 PM 71.6 °F 53.6 °F 53% 29.47 in 10.0 mi South 31.1 mph 39.1 mph N/A Rain Light Rain
1:15 PM 69.8 °F 53.6 °F 56% 29.47 in 10.0 mi South 25.3 mph 44.9 mph N/A   Mostly Cloudy
1:35 PM 71.6 °F 53.6 °F 53% 29.45 in 10.0 mi South 29.9 mph 41.4 mph N/A Rain Light Rain
1:55 PM 71.6 °F 53.6 °F 53% 29.44 in 10.0 mi SSE 21.9 mph 41.4 mph N/A Rain Light Rain
2:15 PM 73.4 °F 53.6 °F 50% 29.41 in 10.0 mi SSE 21.9 mph 43.7 mph N/A   Partly Cloudy
2:35 PM 75.2 °F 51.8 °F 44% 29.41 in 10.0 mi South 29.9 mph 36.8 mph N/A   Clear
3:15 PM 75.2 °F 37.4 °F 25% 29.41 in 9.0 mi South 29.9 mph 48.3 mph N/A Rain Light Rain
3:35 PM 73.4 °F 39.2 °F 29% 29.39 in 9.0 mi South 36.8 mph 48.3 mph N/A Rain Light Rain
4:15 PM 73.4 °F 26.6 °F 18% 29.39 in 7.0 mi SSW 28.8 mph 49.5 mph N/A Rain Light Rain
4:35 PM 73.4 °F 26.6 °F 18% 29.39 in 9.0 mi SSW 34.5 mph 47.2 mph N/A Rain Light Rain
4:55 PM 73.4 °F 26.6 °F 18% 29.39 in 10.0 mi South 28.8 mph 44.9 mph N/A Rain Light Rain
5:15 PM 73.4 °F 26.6 °F 18% 29.37 in 9.0 mi South 35.7 mph 46.0 mph N/A Rain Light Rain
5:35 PM 73.4 °F 26.6 °F 18% 29.37 in 8.0 mi South 27.6 mph 44.9 mph N/A Rain Light Rain
5:55 PM 73.4 °F 30.2 °F 20% 29.37 in 8.0 mi SSW 31.1 mph 42.6 mph N/A   Scattered Clouds
6:15 PM 71.6 °F 32.0 °F 23% 29.37 in 8.0 mi SSW 32.2 mph 44.9 mph N/A Rain Light Rain
6:35 PM 71.6 °F 32.0 °F 23% 29.37 in 9.0 mi South 34.5 mph 46.0 mph N/A   Partly Cloudy
6:55 PM 71.6 °F 35.6 °F 27% 29.37 in 10.0 mi SSW 31.1 mph 42.6 mph N/A Rain Light Rain
7:15 PM 71.6 °F 37.4 °F 29% 29.40 in 10.0 mi SSW 32.2 mph 42.6 mph N/A Rain Light Rain
7:35 PM 71.6 °F 41.0 °F 33% 29.41 in 10.0 mi SSW 26.5 mph 49.5 mph N/A Rain Light Rain
7:55 PM 69.8 °F 42.8 °F 38% 29.41 in 10.0 mi SSW 33.4 mph 44.9 mph N/A Rain Light Rain
8:15 PM 68.0 °F 44.6 °F 43% 29.41 in 10.0 mi SSW 26.5 mph 46.0 mph N/A Rain Light Rain
8:35 PM 68.0 °F 46.4 °F 46% 29.42 in 10.0 mi SSW 28.8 mph 46.0 mph N/A Rain Light Rain
8:55 PM 66.2 °F 46.4 °F 49% 29.44 in 10.0 mi SW 26.5 mph 35.7 mph N/A   Scattered Clouds
9:15 PM 66.2 °F 46.4 °F 49% 29.45 in 10.0 mi SSW 26.5 mph 39.1 mph N/A   Mostly Cloudy
9:35 PM 66.2 °F 48.2 °F 52% 29.46 in 10.0 mi SW 26.5 mph 35.7 mph N/A   Overcast
9:55 PM 66.2 °F 48.2 °F 52% 29.47 in 10.0 mi SW 19.6 mph 34.5 mph N/A   Mostly Cloudy
10:15 PM 66.2 °F 48.2 °F 52% 29.49 in 10.0 mi SW 18.4 mph 32.2 mph N/A   Overcast
10:35 PM 64.4 °F 50.0 °F 59% 29.50 in 10.0 mi SW 20.7 mph 43.7 mph N/A   Overcast
10:55 PM 64.4 °F 50.0 °F 59% 29.51 in 10.0 mi SW 16.1 mph 33.4 mph N/A   Mostly Cloudy
11:35 PM 64.4 °F 50.0 °F 59% 29.54 in 10.0 mi SW 17.3 mph 29.9 mph N/A   Overcast
11:55 PM 62.6 °F 50.0 °F 63% 29.54 in 10.0 mi SW 15.0 mph 26.5 mph N/A   Overcast